Time,TemperatureF,DewpointF,PressureIn,WindDirection,WindDirectionDegrees,WindSpeedMPH,WindSpeedGustMPH,Humidity,HourlyPrecipIn,Conditions,Clouds,dailyrainin,SolarRadiationWatts/m^2,SoftwareType,DateUTC
2013-03-23 00:00:00,32.6,25.6,29.69,NW,306,6.0,10.0,75,0.00,RA,RA,0.00,0.0,WeatherDisplay:10.37,2013-03-23 04:00:00,
2013-03-23 00:05:00,32.7,25.6,29.68,NW,307,9.0,13.0,75,0.00,RA,RA,0.00,0.0,WeatherDisplay:10.37,2013-03-23 04:05:00,
2013-03-23 00:15:00,33.0,25.6,29.68,WNW,293,5.0,13.0,74,0.00,CLR,CLR,0.00,0.0,WeatherDisplay:10.37,2013-03-23 04:15:00,
2013-03-23 00:20:00,33.0,25.0,29.69,WNW,301,9.0,21.0,72,0.00,CLR,CLR,0.00,0.0,WeatherDisplay:10.37,2013-03-23 04:20:00,
2013-03-23 00:25:00,33.2,24.8,29.69,WNW,302,10.0,17.0,71,0.00,CLR,CLR,0.00,0.0,WeatherDisplay:10.37,2013-03-23 04:25:00,
2013-03-23 00:30:00,33.1,24.4,29.68,WNW,303,13.0,18.0,70,0.00,CLR,CLR,0.00,0.0,WeatherDisplay:10.37,2013-03-23 04:30:00,
2013-03-23 00:35:00,33.0,24.3,29.68,WNW,299,10.0,17.0,70,0.00,CLR,CLR,0.00,0.0,WeatherDisplay:10.37,2013-03-23 04:35:00,
2013-03-23 00:40:00,32.9,24.2,29.68,NW,309,7.0,14.0,70,0.00,CLR,CLR,0.00,0.0,WeatherDisplay:10.37,2013-03-23 04:40:00,
2013-03-23 00:45:00,32.7,24.0,29.68,WNW,303,10.0,20.0,70,0.00,CLR,CLR,0.00,0.0,WeatherDisplay:10.37,2013-03-23 04:45:00,
2013-03-23 00:50:00,32.6,23.9,29.68,WNW,303,9.0,15.0,70,0.00,CLR,CLR,0.00,0.0,WeatherDisplay:10.37,2013-03-23 04:50:00,
2013-03-23 00:55:00,32.5,23.5,29.68,NW,310,9.0,16.0,69,0.00,CLR,CLR,0.00,0.0,WeatherDisplay:10.37,2013-03-23 04:55:00,
2013-03-23 01:00:00,32.5,23.5,29.68,NW,306,10.0,20.0,69,0.00,CLR,CLR,0.00,0.0,WeatherDisplay:10.37,2013-03-23 05:00:00,
2013-03-23 01:05:00,32.5,23.4,29.68,WNW,302,8.0,17.0,69,0.00,CLR,CLR,0.00,0.0,WeatherDisplay:10.37,2013-03-23 05:05:00,
2013-03-23 01:10:00,32.4,23.4,29.68,NW,307,7.0,16.0,69,0.00,CLR,CLR,0.00,0.0,WeatherDisplay:10.37,2013-03-23 05:10:00,
2013-03-23 01:15:00,32.3,23.3,29.68,NW,307,9.0,14.0,69,0.00,CLR,CLR,0.00,0.0,WeatherDisplay:10.37,2013-03-23 05:15:00,
2013-03-23 01:20:00,32.3,23.3,29.68,NW,307,9.0,20.0,69,0.00,CLR,CLR,0.00,0.0,WeatherDisplay:10.37,2013-03-23 05:20:00,
2013-03-23 01:25:00,32.2,23.5,29.68,WNW,302,9.0,17.0,70,0.00,CLR,CLR,0.00,0.0,WeatherDisplay:10.37,2013-03-23 05:25:00,
2013-03-23 01:30:00,32.1,23.4,29.68,NW,308,6.0,13.0,70,0.00,CLR,CLR,0.00,0.0,WeatherDisplay:10.37,2013-03-23 05:30:00,
2013-03-23 01:35:00,32.0,23.3,29.68,NW,314,8.0,14.0,70,0.00,CLR,CLR,0.00,0.0,WeatherDisplay:10.37,2013-03-23 05:35:00,
2013-03-23 01:40:00,31.9,23.2,29.68,NW,307,7.0,14.0,70,0.00,CLR,CLR,0.00,0.0,WeatherDisplay:10.37,2013-03-23 05:40:00,
2013-03-23 01:45:00,31.8,23.5,29.68,NW,310,6.0,13.0,71,0.00,CLR,CLR,0.00,0.0,WeatherDisplay:10.37,2013-03-23 05:45:00,
2013-03-23 01:50:00,31.7,23.1,29.69,NW,312,5.0,15.0,70,0.00,CLR,CLR,0.00,0.0,WeatherDisplay:10.37,2013-03-23 05:50:00,
2013-03-23 01:55:00,31.7,23.4,29.69,NW,314,9.0,15.0,71,0.00,CLR,CLR,0.00,0.0,WeatherDisplay:10.37,2013-03-23 05:55:00,
2013-03-23 02:00:00,31.7,23.0,29.69,NW,309,13.0,18.0,70,0.00,CLR,CLR,0.00,0.0,WeatherDisplay:10.37,2013-03-23 06:00:00,
2013-03-23 02:05:00,31.7,23.4,29.69,NW,309,6.0,16.0,71,0.00,CLR,CLR,0.00,0.0,WeatherDisplay:10.37,2013-03-23 06:05:00,
2013-03-23 02:10:00,31.6,23.3,29.69,NW,308,10.0,18.0,71,0.00,CLR,CLR,0.00,0.0,WeatherDisplay:10.37,2013-03-23 06:10:00,
2013-03-23 02:15:00,31.5,23.2,29.69,NW,311,8.0,15.0,71,0.00,CLR,CLR,0.00,0.0,WeatherDisplay:10.37,2013-03-23 06:15:00,
2013-03-23 02:20:00,31.4,23.1,29.68,NW,305,8.0,20.0,71,0.00,CLR,CLR,0.00,0.0,WeatherDisplay:10.37,2013-03-23 06:20:00,
2013-03-23 02:25:00,31.4,23.1,29.68,NW,311,9.0,16.0,71,0.00,CLR,CLR,0.00,0.0,WeatherDisplay:10.37,2013-03-23 06:25:00,
2013-03-23 02:30:00,31.3,23.3,29.68,WNW,302,9.0,18.0,72,0.00,CLR,CLR,0.00,0.0,WeatherDisplay:10.37,2013-03-23 06:30:00,
2013-03-23 02:35:00,31.2,23.2,29.68,NW,312,7.0,16.0,72,0.00,CLR,CLR,0.00,0.0,WeatherDisplay:10.37,2013-03-23 06:35:00,
2013-03-23 02:40:00,31.2,23.2,29.68,NW,314,7.0,15.0,72,0.00,CLR,CLR,0.00,0.0,WeatherDisplay:10.37,2013-03-23 06:40:00,
2013-03-23 02:45:00,31.2,23.2,29.68,NW,312,13.0,20.0,72,0.00,CLR,CLR,0.00,0.0,WeatherDisplay:10.37,2013-03-23 06:45:00,
2013-03-23 02:50:00,31.2,23.2,29.68,NW,306,6.0,18.0,72,0.00,CLR,CLR,0.00,0.0,WeatherDisplay:10.37,2013-03-23 06:50:00,
2013-03-23 02:55:00,31.2,23.2,29.68,NW,311,8.0,13.0,72,0.00,CLR,CLR,0.00,0.0,WeatherDisplay:10.37,2013-03-23 06:55:00,
2013-03-23 03:00:00,31.1,23.1,29.68,NW,312,12.0,20.0,72,0.00,CLR,CLR,0.00,0.0,WeatherDisplay:10.37,2013-03-23 07:00:00,
2013-03-23 03:05:00,31.2,23.2,29.68,NW,304,5.0,12.0,72,0.00,CLR,CLR,0.00,0.0,WeatherDisplay:10.37,2013-03-23 07:05:00,
2013-03-23 03:10:00,31.1,23.1,29.68,NW,304,9.0,15.0,72,0.00,CLR,CLR,0.00,0.0,WeatherDisplay:10.37,2013-03-23 07:10:00,
2013-03-23 03:15:00,31.1,23.1,29.68,NW,306,10.0,15.0,72,0.00,CLR,CLR,0.00,0.0,WeatherDisplay:10.37,2013-03-23 07:15:00,
2013-03-23 03:20:00,31.0,23.0,29.68,NW,306,9.0,14.0,72,0.00,CLR,CLR,0.00,0.0,WeatherDisplay:10.37,2013-03-23 07:20:00,
2013-03-23 03:25:00,30.9,22.9,29.68,NW,319,9.0,14.0,72,0.00,CLR,CLR,0.00,0.0,WeatherDisplay:10.37,2013-03-23 07:25:00,
2013-03-23 03:30:00,30.8,22.8,29.68,NW,308,7.0,14.0,72,0.00,CLR,CLR,0.00,0.0,WeatherDisplay:10.37,2013-03-23 07:30:00,
2013-03-23 03:35:00,30.8,22.5,29.68,WNW,300,5.0,13.0,71,0.00,CLR,CLR,0.00,0.0,WeatherDisplay:10.37,2013-03-23 07:35:00,
2013-03-23 03:40:00,30.8,22.8,29.68,NW,312,5.0,12.0,72,0.00,CLR,CLR,0.00,0.0,WeatherDisplay:10.37,2013-03-23 07:40:00,
2013-03-23 03:50:00,30.7,22.4,29.68,NW,313,8.0,15.0,71,0.00,CLR,CLR,0.00,0.0,WeatherDisplay:10.37,2013-03-23 07:50:00,
2013-03-23 03:55:00,30.8,22.5,29.68,NW,316,7.0,16.0,71,0.00,CLR,CLR,0.00,0.0,WeatherDisplay:10.37,2013-03-23 07:55:00,
2013-03-23 04:00:00,30.8,22.5,29.68,NW,307,3.0,13.0,71,0.00,CLR,CLR,0.00,0.0,WeatherDisplay:10.37,2013-03-23 08:00:00,
2013-03-23 04:05:00,30.7,22.4,29.67,WNW,300,7.0,12.0,71,0.00,CLR,CLR,0.00,0.0,WeatherDisplay:10.37,2013-03-23 08:05:00,
2013-03-23 04:10:00,30.7,22.7,29.67,NW,321,6.0,12.0,72,0.00,CLR,CLR,0.00,0.0,WeatherDisplay:10.37,2013-03-23 08:10:00,
2013-03-23 04:15:00,30.6,22.6,29.67,NW,307,5.0,12.0,72,0.00,CLR,CLR,0.00,0.0,WeatherDisplay:10.37,2013-03-23 08:15:00,
2013-03-23 04:20:00,30.7,22.7,29.68,NW,307,6.0,12.0,72,0.00,CLR,CLR,0.00,0.0,WeatherDisplay:10.37,2013-03-23 08:20:00,
2013-03-23 04:25:00,30.8,22.5,29.68,NW,312,7.0,18.0,71,0.00,CLR,CLR,0.00,0.0,WeatherDisplay:10.37,2013-03-23 08:25:00,
2013-03-23 04:30:00,30.7,22.4,29.67,NW,314,8.0,15.0,71,0.00,CLR,CLR,0.00,0.0,WeatherDisplay:10.37,2013-03-23 08:30:00,
2013-03-23 04:35:00,30.6,22.6,29.67,NW,314,6.0,12.0,72,0.00,CLR,CLR,0.00,0.0,WeatherDisplay:10.37,2013-03-23 08:35:00,
2013-03-23 04:40:00,30.6,22.6,29.67,NW,320,8.0,15.0,72,0.00,CLR,CLR,0.00,0.0,WeatherDisplay:10.37,2013-03-23 08:40:00,
2013-03-23 04:45:00,30.6,22.6,29.67,NNW,329,3.0,9.0,72,0.00,CLR,CLR,0.00,0.0,WeatherDisplay:10.37,2013-03-23 08:45:00,
2013-03-23 04:50:00,30.5,22.5,29.67,NW,314,6.0,12.0,72,0.00,CLR,CLR,0.00,0.0,WeatherDisplay:10.37,2013-03-23 08:50:00,
2013-03-23 04:55:00,30.5,22.5,29.67,WNW,302,7.0,12.0,72,0.00,CLR,CLR,0.00,0.0,WeatherDisplay:10.37,2013-03-23 08:55:00,
2013-03-23 05:00:00,30.5,22.5,29.67,WNW,300,7.0,15.0,72,0.00,CLR,CLR,0.00,0.0,WeatherDisplay:10.37,2013-03-23 09:00:00,
2013-03-23 05:05:00,30.5,22.3,29.67,WNW,302,6.0,17.0,71,0.00,CLR,CLR,0.00,0.0,WeatherDisplay:10.37,2013-03-23 09:05:00,
2013-03-23 05:10:00,30.6,22.3,29.67,WNW,299,5.0,12.0,71,0.00,CLR,CLR,0.00,0.0,WeatherDisplay:10.37,2013-03-23 09:10:00,
2013-03-23 05:15:00,30.5,22.2,29.67,WNW,288,6.0,12.0,71,0.00,CLR,CLR,0.00,0.0,WeatherDisplay:10.37,2013-03-23 09:15:00,
2013-03-23 05:20:00,30.5,22.5,29.67,WNW,291,5.0,12.0,72,0.00,CLR,CLR,0.00,0.0,WeatherDisplay:10.37,2013-03-23 09:20:00,
2013-03-23 05:25:00,30.5,22.5,29.67,WNW,295,3.0,13.0,72,0.00,CLR,CLR,0.00,0.0,WeatherDisplay:10.37,2013-03-23 09:25:00,
2013-03-23 05:35:00,30.2,22.6,29.67,WNW,299,3.0,9.0,73,0.00,CLR,CLR,0.00,0.0,WeatherDisplay:10.37,2013-03-23 09:35:00,
2013-03-23 05:40:00,30.0,22.4,29.67,WNW,292,5.0,10.0,73,0.00,CLR,CLR,0.00,0.0,WeatherDisplay:10.37,2013-03-23 09:40:00,
2013-03-23 05:50:00,29.9,22.6,29.67,WNW,288,2.0,7.0,74,0.00,CLR,CLR,0.00,0.0,WeatherDisplay:10.37,2013-03-23 09:50:00,
2013-03-23 05:55:00,29.8,22.5,29.67,WNW,294,3.0,12.0,74,0.00,CLR,CLR,0.00,0.0,WeatherDisplay:10.37,2013-03-23 09:55:00,
2013-03-23 06:05:00,29.7,22.5,29.67,WNW,301,5.0,12.0,74,0.00,CLR,CLR,0.00,0.0,WeatherDisplay:10.37,2013-03-23 10:05:00,
2013-03-23 06:10:00,29.8,22.8,29.67,WNW,293,6.0,10.0,75,0.00,CLR,CLR,0.00,0.0,WeatherDisplay:10.37,2013-03-23 10:10:00,
2013-03-23 06:15:00,29.9,22.9,29.67,WNW,283,3.0,10.0,75,0.00,CLR,CLR,0.00,0.0,WeatherDisplay:10.37,2013-03-23 10:15:00,
2013-03-23 06:20:00,29.9,22.9,29.67,WNW,287,3.0,10.0,75,0.00,CLR,CLR,0.00,0.0,WeatherDisplay:10.37,2013-03-23 10:20:00,
2013-03-23 06:25:00,29.9,22.9,29.67,WNW,292,6.0,10.0,75,0.00,CLR,CLR,0.00,0.0,WeatherDisplay:10.37,2013-03-23 10:25:00,
2013-03-23 06:30:00,29.9,22.9,29.67,NW,308,5.0,9.0,75,0.00,CLR,CLR,0.00,0.0,WeatherDisplay:10.37,2013-03-23 10:30:00,
2013-03-23 13:35:00,41.6,22.3,29.61,NW,311,9.0,21.0,46,0.02,RA,RA,0.04,158.0,WeatherDisplay:10.37,2013-03-23 17:35:00,
2013-03-23 13:40:00,41.7,22.9,29.61,NNW,329,6.0,17.0,47,0.02,RA,RA,0.04,879.0,WeatherDisplay:10.37,2013-03-23 17:40:00,
2013-03-23 14:10:00,42.8,22.3,29.60,WNW,298,9.0,16.0,44,0.00,FEW,FEW,0.00,134.0,WeatherDisplay:10.37,2013-03-23 18:10:00,
2013-03-23 14:15:00,42.4,21.5,29.60,WNW,299,8.0,23.0,43,0.00,FEW,FEW,0.00,828.0,WeatherDisplay:10.37,2013-03-23 18:15:00,
2013-03-23 14:20:00,42.6,22.1,29.60,NW,307,13.0,21.0,44,0.00,FEW,FEW,0.00,775.0,WeatherDisplay:10.37,2013-03-23 18:20:00,
2013-03-23 14:25:00,42.8,22.4,29.60,NW,310,8.0,21.0,44,0.00,FEW,FEW,0.00,837.0,WeatherDisplay:10.37,2013-03-23 18:25:00,
2013-03-23 14:30:00,43.1,22.1,29.60,NW,312,13.0,26.0,43,0.00,FEW,FEW,0.00,810.0,WeatherDisplay:10.37,2013-03-23 18:30:00,
2013-03-23 14:40:00,43.6,22.0,29.60,NW,317,15.0,25.0,42,0.00,FEW,FEW,0.00,717.0,WeatherDisplay:10.37,2013-03-23 18:40:00,
2013-03-23 14:45:00,43.4,22.4,29.60,NW,322,8.0,24.0,43,0.00,FEW,FEW,0.00,731.0,WeatherDisplay:10.37,2013-03-23 18:45:00,
2013-03-23 14:50:00,43.6,22.5,29.60,NW,317,13.0,23.0,43,0.00,FEW,FEW,0.00,195.0,WeatherDisplay:10.37,2013-03-23 18:50:00,
2013-03-23 14:55:00,42.5,22.6,29.60,NW,308,12.0,22.0,45,0.00,FEW,FEW,0.00,677.0,WeatherDisplay:10.37,2013-03-23 18:55:00,
2013-03-23 15:00:00,43.0,22.5,29.60,NW,316,13.0,26.0,44,0.00,FEW,FEW,0.00,663.0,WeatherDisplay:10.37,2013-03-23 19:00:00,
2013-03-23 15:05:00,43.8,22.8,29.60,NW,321,13.0,20.0,43,0.00,SCT,SCT,0.00,657.0,WeatherDisplay:10.37,2013-03-23 19:05:00,
2013-03-23 15:10:00,44.1,22.4,29.60,NNW,327,12.0,24.0,42,0.00,SCT,SCT,0.00,643.0,WeatherDisplay:10.37,2013-03-23 19:10:00,
2013-03-23 15:15:00,44.4,22.7,29.60,NW,318,9.0,24.0,42,0.00,SCT,SCT,0.00,635.0,WeatherDisplay:10.37,2013-03-23 19:15:00,
2013-03-23 15:20:00,44.2,22.0,29.60,NW,319,13.0,24.0,41,0.00,SCT,SCT,0.00,622.0,WeatherDisplay:10.37,2013-03-23 19:20:00,
2013-03-23 15:30:00,44.3,21.5,29.59,NW,317,12.0,24.0,40,0.00,SCT,SCT,0.00,596.0,WeatherDisplay:10.37,2013-03-23 19:30:00,
2013-03-23 15:40:00,44.6,21.7,29.59,NW,315,14.0,24.0,40,0.00,SCT,SCT,0.00,571.0,WeatherDisplay:10.37,2013-03-23 19:40:00,
2013-03-23 15:50:00,44.7,21.8,29.59,NNW,332,9.0,22.0,40,0.00,SCT,SCT,0.00,545.0,WeatherDisplay:10.37,2013-03-23 19:50:00,
2013-03-23 15:55:00,44.9,22.0,29.59,NNW,337,13.0,22.0,40,0.00,SCT,SCT,0.00,533.0,WeatherDisplay:10.37,2013-03-23 19:55:00,
2013-03-23 16:00:00,45.2,21.6,29.59,NNW,335,14.0,20.0,39,0.00,SCT,SCT,0.00,520.0,WeatherDisplay:10.37,2013-03-23 20:00:00,
2013-03-23 16:05:00,44.9,22.0,29.59,NW,320,8.0,23.0,40,0.00,CLR,CLR,0.00,506.0,WeatherDisplay:10.37,2013-03-23 20:05:00,
2013-03-23 16:10:00,44.7,22.4,29.59,NW,318,8.0,18.0,41,0.00,CLR,CLR,0.00,490.0,WeatherDisplay:10.37,2013-03-23 20:10:00,
2013-03-23 16:15:00,45.4,23.6,29.59,NW,316,6.0,18.0,42,0.00,CLR,CLR,0.00,483.0,WeatherDisplay:10.37,2013-03-23 20:15:00,
2013-03-23 16:20:00,45.5,22.6,29.58,NW,307,10.0,20.0,40,0.00,CLR,CLR,0.00,464.0,WeatherDisplay:10.37,2013-03-23 20:20:00,
2013-03-23 16:30:00,44.1,21.9,29.58,NW,312,9.0,22.0,41,0.01,RA,RA,0.01,434.0,WeatherDisplay:10.37,2013-03-23 20:30:00,
2013-03-23 16:40:00,44.6,22.3,29.58,NW,325,13.0,25.0,41,0.00,CLR,CLR,0.01,404.0,WeatherDisplay:10.37,2013-03-23 20:40:00,
2013-03-23 16:45:00,44.9,22.6,29.59,NW,310,9.0,18.0,41,0.00,CLR,CLR,0.01,388.0,WeatherDisplay:10.37,2013-03-23 20:45:00,
2013-03-23 16:50:00,44.9,21.4,29.59,NW,317,12.0,20.0,39,0.00,CLR,CLR,0.01,373.0,WeatherDisplay:10.37,2013-03-23 20:50:00,
2013-03-23 16:55:00,44.3,21.5,29.59,NW,309,15.0,24.0,40,0.00,CLR,CLR,0.01,357.0,WeatherDisplay:10.37,2013-03-23 20:55:00,
2013-03-23 17:00:00,44.3,21.5,29.59,NW,317,10.0,22.0,40,0.00,CLR,CLR,0.01,341.0,WeatherDisplay:10.37,2013-03-23 21:00:00,
2013-03-23 17:05:00,44.7,22.4,29.58,NW,326,9.0,17.0,41,0.00,CLR,CLR,0.01,330.0,WeatherDisplay:10.37,2013-03-23 21:05:00,
2013-03-23 17:10:00,44.9,22.6,29.58,NW,318,9.0,18.0,41,0.00,CLR,CLR,0.01,316.0,WeatherDisplay:10.37,2013-03-23 21:10:00,
2013-03-23 17:20:00,45.1,22.8,29.59,NW,326,9.0,20.0,41,0.00,CLR,CLR,0.01,285.0,WeatherDisplay:10.37,2013-03-23 21:20:00,
2013-03-23 17:30:00,44.6,21.8,29.59,NW,320,13.0,27.0,40,0.00,CLR,CLR,0.01,246.0,WeatherDisplay:10.37,2013-03-23 21:30:00,
2013-03-23 17:35:00,44.1,22.4,29.60,NW,311,8.0,20.0,42,0.00,CLR,CLR,0.01,232.0,WeatherDisplay:10.37,2013-03-23 21:35:00,
2013-03-23 17:40:00,44.1,23.0,29.60,NW,315,10.0,21.0,43,0.00,CLR,CLR,0.01,216.0,WeatherDisplay:10.37,2013-03-23 21:40:00,
2013-03-23 17:50:00,44.1,22.4,29.60,NW,316,14.0,20.0,42,0.00,CLR,CLR,0.01,186.0,WeatherDisplay:10.37,2013-03-23 21:50:00,
2013-03-23 18:00:00,43.4,22.9,29.60,NW,310,7.0,25.0,44,0.00,CLR,CLR,0.01,155.0,WeatherDisplay:10.37,2013-03-23 22:00:00,
2013-03-23 18:05:00,43.1,23.2,29.61,NW,309,14.0,25.0,45,0.00,CLR,CLR,0.01,141.0,WeatherDisplay:10.37,2013-03-23 22:05:00,
2013-03-23 18:10:00,42.9,23.0,29.61,NW,318,13.0,20.0,45,0.00,CLR,CLR,0.01,123.0,WeatherDisplay:10.37,2013-03-23 22:10:00,
2013-03-23 18:20:00,42.8,22.9,29.62,NW,312,10.0,17.0,45,0.00,CLR,CLR,0.01,97.0,WeatherDisplay:10.37,2013-03-23 22:20:00,
2013-03-23 18:30:00,42.2,22.4,29.62,NW,313,10.0,17.0,45,0.00,CLR,CLR,0.01,58.0,WeatherDisplay:10.37,2013-03-23 22:30:00,
2013-03-23 18:40:00,41.5,22.7,29.62,NW,317,10.0,21.0,47,0.00,CLR,CLR,0.01,16.0,WeatherDisplay:10.37,2013-03-23 22:40:00,
2013-03-23 18:50:00,40.8,23.6,29.63,NW,317,7.0,15.0,50,0.00,CLR,CLR,0.01,5.0,WeatherDisplay:10.37,2013-03-23 22:50:00,
2013-03-23 19:00:00,40.6,23.4,29.63,NW,320,9.0,14.0,50,0.00,CLR,CLR,0.01,0.0,WeatherDisplay:10.37,2013-03-23 23:00:00,
2013-03-23 19:05:00,40.5,23.8,29.63,NW,318,6.0,15.0,51,0.00,OVC,OVC,0.01,0.0,WeatherDisplay:10.37,2013-03-23 23:05:00,
2013-03-23 19:15:00,40.4,23.6,29.64,NW,323,8.0,15.0,51,0.00,OVC,OVC,0.01,0.0,WeatherDisplay:10.37,2013-03-23 23:15:00,
2013-03-23 19:20:00,40.2,24.0,29.64,NW,320,8.0,15.0,52,0.00,OVC,OVC,0.01,0.0,WeatherDisplay:10.37,2013-03-23 23:20:00,
2013-03-23 19:25:00,40.1,23.9,29.64,NW,309,7.0,14.0,52,0.00,OVC,OVC,0.01,0.0,WeatherDisplay:10.37,2013-03-23 23:25:00,
2013-03-23 19:30:00,40.0,23.8,29.65,NW,307,10.0,16.0,52,0.00,OVC,OVC,0.01,0.0,WeatherDisplay:10.37,2013-03-23 23:30:00,
2013-03-23 19:35:00,40.0,23.8,29.65,NW,310,6.0,13.0,52,0.00,OVC,OVC,0.01,0.0,WeatherDisplay:10.37,2013-03-23 23:35:00,
2013-03-23 19:40:00,39.8,23.6,29.65,NW,317,5.0,13.0,52,0.00,OVC,OVC,0.01,0.0,WeatherDisplay:10.37,2013-03-23 23:40:00,
2013-03-23 19:45:00,39.7,23.5,29.65,NW,316,5.0,13.0,52,0.00,OVC,OVC,0.01,0.0,WeatherDisplay:10.37,2013-03-23 23:45:00,
2013-03-23 19:50:00,39.6,23.4,29.66,NW,308,5.0,12.0,52,0.00,OVC,OVC,0.01,0.0,WeatherDisplay:10.37,2013-03-23 23:50:00,
2013-03-23 20:00:00,39.2,23.5,29.66,NW,307,6.0,13.0,53,0.00,OVC,OVC,0.01,0.0,WeatherDisplay:10.37,2013-03-24 00:00:00,
2013-03-23 20:05:00,39.1,23.4,29.66,NW,311,3.0,14.0,53,0.00,FEW,FEW,0.01,0.0,WeatherDisplay:10.37,2013-03-24 00:05:00,
2013-03-23 20:10:00,39.0,23.3,29.66,NNW,328,6.0,10.0,53,0.00,FEW,FEW,0.01,0.0,WeatherDisplay:10.37,2013-03-24 00:10:00,
2013-03-23 20:15:00,38.8,23.1,29.67,NW,315,5.0,12.0,53,0.00,FEW,FEW,0.01,0.0,WeatherDisplay:10.37,2013-03-24 00:15:00,
2013-03-23 20:20:00,38.7,23.0,29.67,WNW,299,6.0,9.0,53,0.00,FEW,FEW,0.01,0.0,WeatherDisplay:10.37,2013-03-24 00:20:00,
2013-03-23 20:25:00,38.6,23.4,29.67,WNW,298,3.0,10.0,54,0.00,FEW,FEW,0.01,0.0,WeatherDisplay:10.37,2013-03-24 00:25:00,
2013-03-23 20:30:00,38.5,23.7,29.68,NW,310,3.0,9.0,55,0.00,FEW,FEW,0.01,0.0,WeatherDisplay:10.37,2013-03-24 00:30:00,
2013-03-23 20:35:00,38.4,23.6,29.68,NW,313,5.0,13.0,55,0.00,FEW,FEW,0.01,0.0,WeatherDisplay:10.37,2013-03-24 00:35:00,
2013-03-23 20:40:00,38.3,23.1,29.68,NW,312,5.0,10.0,54,0.00,FEW,FEW,0.01,0.0,WeatherDisplay:10.37,2013-03-24 00:40:00,
2013-03-23 20:50:00,38.2,23.0,29.69,NW,311,3.0,9.0,54,0.00,FEW,FEW,0.01,0.0,WeatherDisplay:10.37,2013-03-24 00:50:00,
2013-03-23 20:55:00,38.1,23.7,29.69,NW,310,3.0,7.0,56,0.00,FEW,FEW,0.01,0.0,WeatherDisplay:10.37,2013-03-24 00:55:00,
2013-03-23 21:00:00,38.0,23.7,29.69,NW,314,6.0,10.0,56,0.00,FEW,FEW,0.01,0.0,WeatherDisplay:10.37,2013-03-24 01:00:00,
2013-03-23 21:05:00,38.0,24.1,29.70,NW,304,5.0,10.0,57,0.00,CLR,CLR,0.01,0.0,WeatherDisplay:10.37,2013-03-24 01:05:00,
2013-03-23 21:10:00,38.0,24.1,29.70,WNW,301,6.0,12.0,57,0.00,CLR,CLR,0.01,0.0,WeatherDisplay:10.37,2013-03-24 01:10:00,
2013-03-23 21:15:00,38.0,23.7,29.70,WNW,303,6.0,10.0,56,0.00,CLR,CLR,0.01,0.0,WeatherDisplay:10.37,2013-03-24 01:15:00,
2013-03-23 21:20:00,38.0,23.7,29.70,WNW,303,5.0,14.0,56,0.00,CLR,CLR,0.01,0.0,WeatherDisplay:10.37,2013-03-24 01:20:00,
2013-03-23 21:25:00,37.9,24.0,29.70,NW,305,6.0,10.0,57,0.00,CLR,CLR,0.01,0.0,WeatherDisplay:10.37,2013-03-24 01:25:00,
2013-03-23 21:30:00,37.8,24.3,29.70,WNW,300,9.0,13.0,58,0.00,CLR,CLR,0.01,0.0,WeatherDisplay:10.37,2013-03-24 01:30:00,
2013-03-23 21:35:00,37.8,24.7,29.70,NW,310,7.0,15.0,59,0.00,CLR,CLR,0.01,0.0,WeatherDisplay:10.37,2013-03-24 01:35:00,
2013-03-23 21:40:00,37.7,24.6,29.70,NW,313,6.0,12.0,59,0.00,CLR,CLR,0.01,0.0,WeatherDisplay:10.37,2013-03-24 01:40:00,
2013-03-23 21:50:00,37.6,25.3,29.69,NW,314,3.0,12.0,61,0.00,CLR,CLR,0.01,0.0,WeatherDisplay:10.37,2013-03-24 01:50:00,
2013-03-23 21:55:00,37.5,24.9,29.69,NW,305,5.0,12.0,60,0.00,CLR,CLR,0.01,0.0,WeatherDisplay:10.37,2013-03-24 01:55:00,
2013-03-23 22:00:00,37.4,24.8,29.69,NW,310,3.0,12.0,60,0.00,CLR,CLR,0.01,0.0,WeatherDisplay:10.37,2013-03-24 02:00:00,
2013-03-23 22:10:00,37.2,24.6,29.70,NW,320,3.0,7.0,60,0.00,CLR,CLR,0.01,0.0,WeatherDisplay:10.37,2013-03-24 02:10:00,
2013-03-23 22:15:00,37.1,24.5,29.70,NW,320,2.0,10.0,60,0.00,CLR,CLR,0.01,0.0,WeatherDisplay:10.37,2013-03-24 02:15:00,
2013-03-23 22:25:00,37.1,24.1,29.70,NW,309,7.0,12.0,59,0.00,CLR,CLR,0.01,0.0,WeatherDisplay:10.37,2013-03-24 02:25:00,
2013-03-23 22:30:00,37.1,24.1,29.70,NW,320,7.0,12.0,59,0.00,CLR,CLR,0.01,0.0,WeatherDisplay:10.37,2013-03-24 02:30:00,
2013-03-23 22:40:00,37.0,24.0,29.70,NW,314,6.0,12.0,59,0.00,CLR,CLR,0.01,0.0,WeatherDisplay:10.37,2013-03-24 02:40:00,
2013-03-23 22:50:00,37.1,24.1,29.71,WNW,302,3.0,12.0,59,0.00,CLR,CLR,0.01,0.0,WeatherDisplay:10.37,2013-03-24 02:50:00,
2013-03-23 22:55:00,37.0,24.0,29.71,WNW,302,1.0,6.0,59,0.00,CLR,CLR,0.01,0.0,WeatherDisplay:10.37,2013-03-24 02:55:00,
2013-03-23 23:00:00,36.8,23.4,29.72,WNW,302,5.0,12.0,58,0.00,CLR,CLR,0.01,0.0,WeatherDisplay:10.37,2013-03-24 03:00:00,
2013-03-23 23:05:00,36.7,22.9,29.72,NW,312,3.0,14.0,57,0.00,CLR,CLR,0.01,0.0,WeatherDisplay:10.37,2013-03-24 03:05:00,
2013-03-23 23:10:00,36.6,22.8,29.72,NW,306,6.0,14.0,57,0.00,CLR,CLR,0.01,0.0,WeatherDisplay:10.37,2013-03-24 03:10:00,
2013-03-23 23:20:00,36.2,22.4,29.71,NW,307,5.0,8.0,57,0.00,CLR,CLR,0.01,0.0,WeatherDisplay:10.37,2013-03-24 03:20:00,
2013-03-23 23:30:00,35.7,22.0,29.70,WNW,300,2.0,9.0,57,0.00,CLR,CLR,0.01,0.0,WeatherDisplay:10.37,2013-03-24 03:30:00,
2013-03-23 23:35:00,35.6,22.3,29.70,NW,307,5.0,14.0,58,0.00,CLR,CLR,0.01,0.0,WeatherDisplay:10.37,2013-03-24 03:35:00,
2013-03-23 23:40:00,35.5,22.2,29.70,NW,306,7.0,12.0,58,0.00,CLR,CLR,0.01,0.0,WeatherDisplay:10.37,2013-03-24 03:40:00,
2013-03-23 23:50:00,35.5,22.2,29.71,WNW,303,5.0,13.0,58,0.00,CLR,CLR,0.01,0.0,WeatherDisplay:10.37,2013-03-24 03:50:00,